Flag for Lesotho Weather past 2 weeks in Maseru, Lesotho

Now
50 °F

Cool.


Feels Like: 49 °F
Forecast: 41 / 77 °F
Wind: 3 mph from Southwest

Location: Bloemfontein Airport

Current Time: Mar 28, 2015 at 4:36:29 AM

Latest Report: Mar 28, 2015 at 4:00 AM


Visibility: N/A

Pressure: 30.12 "Hg

Humidity: 88%

Dew point: 46 °F

Location of MaseruLocation

Historic Weather in Maseru — Graph

°F

Maseru temperature yesterday

Maximum temperature yesterday: 79 °F (at 3:00 PM)
Minimum temperature yesterday: 50 °F (at 4:00 AM)
Average temperature yesterday: 63 °F

Past Weeks' High & Low Weather Summary

 TemperatureHumidityPressure
High90 °F (Mar 14, 2:00 PM)94% (Mar 19, 6:00 AM)30.30 "Hg (Mar 19, 6:00 AM)
Low50 °F (Mar 17, 5:00 AM)13% (Mar 16, 6:00 PM)29.95 "Hg (Mar 18, 4:00 PM)
Average67 °F63%30.15 "Hg
* Reported Mar 13 3:00 AM — Mar 28 3:00 AM, Maseru, Weather by CustomWeather, © 2015

Note: Actual official high and low records may vary slightly from our data, if they occured in-between our weather recording intervals... More about our weather records

Advertising

Maseru weather history for previous 24 hours

 ConditionsComfort  
Time TempWeatherWind HumidityBarometerVisibility
3:00 AM
Sat, Mar 28
50 °FCool.3 mph88%30.12 "HgN/A
2:00 AM52 °FCool.No wind82%30.15 "HgN/A
1:00 AM54 °FCool.2 mph77%30.15 "HgN/A
12:00 AM54 °FCool.3 mph82%30.15 "HgN/A
11:00 PM
Fri, Mar 27
55 °FCool.1 mph77%30.18 "HgN/A
10:00 PM59 °FCool.6 mph68%30.15 "HgN/A
9:00 PM59 °FCool.6 mph68%30.15 "HgN/A
8:00 PM64 °FClear.3 mph46%30.15 "Hg10 mi
7:00 PM68 °FClear.7 mph40%30.12 "Hg10 mi
6:00 PM73 °FClear.6 mph33%30.12 "Hg10 mi
5:00 PM77 °FSunny.7 mph24%30.12 "Hg10 mi
4:00 PM77 °FPassing clouds.6 mph30%30.12 "HgN/A
3:00 PM79 °FPassing clouds.8 mph28%30.12 "HgN/A
2:00 PM77 °FSunny.5 mph22%30.12 "Hg10 mi
1:00 PM75 °FPassing clouds.7 mph31%30.15 "HgN/A
12:00 PM75 °FPassing clouds.9 mph34%30.15 "HgN/A
11:00 AM73 °FPassing clouds.3 mph33%30.21 "HgN/A
10:00 AM68 °FPassing clouds.5 mph53%30.18 "HgN/A
9:00 AM63 °FPassing clouds.3 mph64%30.18 "HgN/A
8:00 AM57 °FSunny.1 mph72%30.21 "Hg10 mi
7:00 AM50 °FSunny.3 mph88%30.18 "Hg10 mi
6:00 AM50 °FSunny.5 mph88%30.15 "Hg10 mi
5:00 AM50 °FClear.No wind88%30.15 "Hg10 mi
4:00 AM50 °FCool.5 mph88%30.15 "HgN/A
Weather by CustomWeather, © 2015

See weather overviewHow to use our weather pages